QPF
0.00 0.01 0.01 0.01 0.00 0.01 0.01 0.01 0.01 0.02 0.01 0.01 0.01 0.01 0.01 0.02 0.03 0.01 0.02 0.03 0.03 0.05 0.06 0.07 0.06 0.05 0.02 0.01 0.00 0.00 0.01 0.01 0.01 0.01 0.01 0.00 0.00 0.00
0.00 0.01 0.01 0.00 0.00 0.00 0.00 0.00 0.00 0.01 0.01 0.00 0.00 0.00 0.01 0.01 0.03 0.02 0.01 0.02 0.04 0.08 0.07 0.05 0.03 0.02 0.01 0.00 0.00 0.00 0.00 0.00 0.00 0.01 0.01 0.00 0.00 0.00
0.00 0.00 0.00 0.00 0.00 0.00 0.00 0.00 0.00 0.00 0.01 0.00 0.00 0.01 0.01 0.01 0.02 0.01 0.01 0.02 0.04 0.08 0.06 0.03 0.01 0.00 0.00 0.00 0.00 0.00 0.00 0.00 0.00 0.00 0.00 0.00 0.00 0.00
0.01 0.01 0.01 0.00 0.00 0.00 0.00 0.00 0.00 0.00 0.00 0.00 0.01 0.01 0.02 0.01 0.00 0.01 0.03 0.05 0.05 0.05 0.03 0.01 0.00 0.00 0.00 0.00 0.00 0.00 0.00 0.00 0.00 0.00 0.00 0.00 0.00 0.00
0.01 0.01 0.00 0.00 0.00 0.00 0.00 0.00 0.00 0.00 0.00 0.00 0.00 0.01 0.02 0.01 0.01 0.00 0.01 0.04 0.05 0.04 0.03 0.01 0.01 0.00 0.00 0.00 0.00 0.00 0.00 0.00 0.00 0.00 0.00 0.00 0.00 0.00
0.01 0.01 0.00 0.00 0.00 0.00 0.00 0.01 0.00 0.00 0.00 0.00 0.00 0.00 0.00 0.00 0.01 0.00 0.00 0.01 0.01 0.02 0.03 0.01 0.01 0.01 0.00 0.00 0.00 0.00 0.00 0.00 0.00 0.00 0.00 0.00 0.00 0.00
0.01 0.00 0.01 0.01 0.01 0.01 0.00 0.01 0.01 0.01 0.00 0.00 0.00 0.00 0.00 0.00 0.00 0.00 0.00 0.00 0.00 0.01 0.01 0.01 0.01 0.01 0.01 0.01 0.01 0.00 0.00 0.00 0.00 0.00 0.00 0.00 0.00 0.00
0.01 0.01 0.01 0.01 0.00 0.00 0.00 0.00 0.00 0.00 0.00 0.00 0.00 0.00 0.00 0.00 0.00 0.00 0.00 0.00 0.00 0.00 0.00 0.00 0.00 0.00 0.01 0.01 0.01 0.00 0.00 0.00 0.00 0.00 0.00 0.00 0.00 0.00
0.00 0.00 0.00 0.00 0.00 0.00 0.00 0.00 0.00 0.00 0.00 0.00 0.00 0.00 0.00 0.00 0.00 0.00 0.00 0.00 0.00 0.01 0.01 0.01 0.01 0.01 0.01 0.01 0.00 0.00 0.00 0.00 0.00 0.00 0.00 0.00 0.01 0.01
0.00 0.00 0.00 0.00 0.00 0.00 0.00 0.00 0.00 0.00 0.00 0.00 0.00 0.00 0.00 0.00 0.01 0.01 0.01 0.01 0.01 0.01 0.02 0.01 0.01 0.01 0.01 0.01 0.01 0.00 0.00 0.00 0.00 0.00 0.00 0.01 0.01 0.01
0.00 0.00 0.00 0.00 0.00 0.00 0.00 0.00 0.00 0.00 0.00 0.00 0.00 0.00 0.00 0.00 0.01 0.01 0.01 0.01 0.01 0.01 0.01 0.01 0.01 0.01 0.01 0.00 0.00 0.00 0.00 0.00 0.00 0.00 0.00 0.00 0.01 0.01
0.00 0.00 0.00 0.00 0.00 0.00 0.00 0.00 0.00 0.00 0.00 0.00 0.00 0.00 0.00 0.00 0.01 0.01 0.02 0.02 0.01 0.01 0.00 0.01 0.01 0.01 0.01 0.00 0.00 0.00 0.00 0.00 0.00 0.00 0.00 0.00 0.01 0.01
0.00 0.00 0.00 0.00 0.00 0.00 0.00 0.00 0.00 0.00 0.00 0.00 0.00 0.00 0.00 0.00 0.00 0.01 0.01 0.01 0.01 0.00 0.00 0.01 0.01 0.01 0.02 0.01 0.00 0.00 0.00 0.00 0.00 0.00 0.01 0.01 0.01 0.01
0.00 0.00 0.00 0.01 0.00 0.00 0.00 0.00 0.00 0.00 0.00 0.00 0.00 0.00 0.00 0.00 0.00 0.01 0.01 0.01 0.01 0.00 0.01 0.01 0.01 0.02 0.02 0.01 0.01 0.00 0.00 0.00 0.01 0.01 0.01 0.01 0.01 0.01
0.01 0.01 0.01 0.01 0.00 0.00 0.00 0.00 0.00 0.00 0.01 0.00 0.00 0.00 0.00 0.00 0.01 0.01 0.01 0.01 0.01 0.01 0.01 0.01 0.02 0.02 0.02 0.02 0.02 0.01 0.01 0.01 0.01 0.01 0.01 0.01 0.01 0.01
0.01 0.02 0.01 0.01 0.01 0.01 0.00 0.00 0.00 0.00 0.00 0.00 0.00 0.00 0.00 0.01 0.02 0.02 0.02 0.01 0.01 0.00 0.01 0.01 0.01 0.02 0.02 0.02 0.02 0.02 0.02 0.01 0.01 0.01 0.01 0.01 0.01 0.01
0.02 0.01 0.01 0.00 0.00 0.01 0.01 0.01 0.01 0.01 0.01 0.01 0.01 0.01 0.01 0.01 0.01 0.01 0.01 0.01 0.01 0.01 0.01 0.01 0.01 0.01 0.02 0.02 0.02 0.02 0.02 0.02 0.02 0.02 0.02 0.02 0.02 0.02
0.01 0.01 0.01 0.01 0.01 0.01 0.01 0.01 0.01 0.01 0.01 0.01 0.01 0.01 0.01 0.01 0.01 0.01 0.01 0.01 0.01 0.01 0.01 0.01 0.02 0.02 0.02 0.01 0.02 0.02 0.02 0.02 0.03 0.03 0.04 0.05 0.04 0.02
0.00 0.00 0.00 0.00 0.00 0.01 0.01 0.00 0.00 0.01 0.01 0.01 0.01 0.01 0.01 0.01 0.01 0.00 0.01 0.01 0.01 0.01 0.01 0.02 0.02 0.03 0.04 0.03 0.02 0.03 0.03 0.03 0.03 0.03 0.04 0.04 0.04 0.03
0.00 0.00 0.00 0.00 0.00 0.00 0.00 0.00 0.00 0.00 0.00 0.00 0.01 0.01 0.01 0.01 0.01 0.01 0.01 0.01 0.02 0.02 0.01 0.01 0.01 0.01 0.02 0.03 0.03 0.03 0.03 0.03 0.03 0.03 0.03 0.03 0.02 0.02
0.00 0.00 0.00 0.00 0.00 0.00 0.00 0.00 0.01 0.01 0.00 0.00 0.00 0.01 0.01 0.01 0.01 0.01 0.01 0.02 0.02 0.03 0.02 0.01 0.01 0.02 0.02 0.02 0.02 0.01 0.02 0.03 0.03 0.03 0.03 0.03 0.03 0.03
0.00 0.00 0.00 0.00 0.01 0.01 0.01 0.01 0.01 0.01 0.00 0.00 0.00 0.01 0.01 0.01 0.01 0.01 0.02 0.02 0.03 0.03 0.03 0.02 0.02 0.02 0.02 0.03 0.03 0.02 0.02 0.02 0.02 0.03 0.03 0.03 0.04 0.04
0.01 0.00 0.01 0.01 0.01 0.01 0.01 0.01 0.01 0.00 0.00 0.00 0.01 0.01 0.01 0.01 0.01 0.01 0.01 0.02 0.02 0.02 0.02 0.02 0.01 0.02 0.02 0.02 0.03 0.03 0.03 0.03 0.03 0.03 0.03 0.04 0.04 0.03
MSLP
1023.24 1023.33 1023.46 1023.63 1023.83 1024.05 1024.29 1024.54 1024.80 1025.05 1025.30 1025.52 1025.70 1025.82 1025.87 1025.83 1025.71 1025.52 1025.27 1024.98 1024.69 1024.41 1024.16 1023.96 1023.78 1023.63 1023.50 1023.36 1023.20 1023.03 1022.82 1022.59 1022.34 1022.06 1021.76 1021.44 1021.10 1020.74
1023.78 1023.82 1023.88 1023.96 1024.07 1024.21 1024.38 1024.58 1024.81 1025.05 1025.31 1025.55 1025.76 1025.90 1025.97 1025.95 1025.83 1025.63 1025.36 1025.06 1024.74 1024.43 1024.16 1023.92 1023.73 1023.57 1023.42 1023.28 1023.13 1022.96 1022.77 1022.56 1022.33 1022.08 1021.80 1021.50 1021.18 1020.83
1024.33 1024.35 1024.37 1024.39 1024.44 1024.51 1024.62 1024.78 1024.97 1025.21 1025.46 1025.71 1025.93 1026.10 1026.18 1026.16 1026.05 1025.85 1025.57 1025.25 1024.91 1024.58 1024.29 1024.03 1023.81 1023.62 1023.45 1023.29 1023.13 1022.95 1022.75 1022.53 1022.31 1022.06 1021.80 1021.52 1021.22 1020.88
1024.84 1024.86 1024.87 1024.87 1024.88 1024.91 1024.98 1025.11 1025.28 1025.49 1025.74 1025.99 1026.21 1026.38 1026.47 1026.46 1026.35 1026.15 1025.87 1025.55 1025.20 1024.87 1024.55 1024.28 1024.03 1023.82 1023.62 1023.42 1023.21 1023.00 1022.77 1022.53 1022.28 1022.03 1021.77 1021.50 1021.20 1020.87
1025.25 1025.30 1025.33 1025.33 1025.34 1025.36 1025.41 1025.51 1025.66 1025.86 1026.09 1026.33 1026.54 1026.71 1026.79 1026.78 1026.68 1026.48 1026.21 1025.90 1025.56 1025.23 1024.92 1024.63 1024.37 1024.12 1023.88 1023.63 1023.37 1023.11 1022.83 1022.54 1022.26 1021.99 1021.71 1021.43 1021.13 1020.81
1025.55 1025.65 1025.71 1025.74 1025.76 1025.78 1025.83 1025.92 1026.05 1026.23 1026.44 1026.65 1026.85 1027.00 1027.08 1027.07 1026.97 1026.79 1026.54 1026.25 1025.94 1025.62 1025.32 1025.03 1024.75 1024.48 1024.20 1023.90 1023.58 1023.25 1022.91 1022.56 1022.23 1021.92 1021.61 1021.31 1021.01 1020.69
1025.75 1025.90 1026.00 1026.06 1026.10 1026.13 1026.18 1026.25 1026.37 1026.52 1026.71 1026.90 1027.07 1027.21 1027.28 1027.27 1027.18 1027.02 1026.80 1026.55 1026.27 1025.98 1025.70 1025.42 1025.13 1024.83 1024.51 1024.16 1023.78 1023.39 1022.98 1022.57 1022.19 1021.82 1021.48 1021.16 1020.85 1020.53
1025.87 1026.05 1026.19 1026.28 1026.33 1026.37 1026.42 1026.48 1026.57 1026.70 1026.86 1027.02 1027.17 1027.28 1027.35 1027.35 1027.28 1027.15 1026.97 1026.76 1026.52 1026.27 1026.01 1025.74 1025.45 1025.13 1024.78 1024.38 1023.95 1023.49 1023.02 1022.56 1022.12 1021.71 1021.33 1020.99 1020.67 1020.36
1025.94 1026.14 1026.30 1026.40 1026.46 1026.50 1026.54 1026.58 1026.65 1026.75 1026.88 1027.01 1027.14 1027.25 1027.32 1027.33 1027.29 1027.19 1027.05 1026.88 1026.68 1026.46 1026.23 1025.97 1025.68 1025.35 1024.96 1024.53 1024.06 1023.55 1023.03 1022.52 1022.03 1021.59 1021.19 1020.83 1020.49 1020.18
1025.98 1026.19 1026.35 1026.45 1026.52 1026.55 1026.56 1026.59 1026.63 1026.70 1026.80 1026.92 1027.04 1027.15 1027.22 1027.26 1027.24 1027.19 1027.08 1026.95 1026.78 1026.59 1026.37 1026.12 1025.82 1025.48 1025.07 1024.62 1024.11 1023.57 1023.02 1022.48 1021.96 1021.48 1021.06 1020.68 1020.34 1020.03
1026.01 1026.22 1026.38 1026.48 1026.53 1026.54 1026.54 1026.55 1026.57 1026.62 1026.71 1026.82 1026.94 1027.05 1027.14 1027.20 1027.22 1027.19 1027.12 1027.00 1026.86 1026.67 1026.46 1026.20 1025.89 1025.53 1025.12 1024.64 1024.12 1023.57 1023.00 1022.44 1021.91 1021.41 1020.97 1020.58 1020.23 1019.90
1026.02 1026.24 1026.39 1026.49 1026.54 1026.54 1026.53 1026.52 1026.54 1026.58 1026.66 1026.77 1026.90 1027.03 1027.14 1027.22 1027.25 1027.24 1027.19 1027.08 1026.93 1026.74 1026.51 1026.23 1025.91 1025.53 1025.11 1024.63 1024.10 1023.55 1022.98 1022.42 1021.88 1021.38 1020.92 1020.50 1020.13 1019.79
1026.01 1026.24 1026.41 1026.52 1026.57 1026.58 1026.57 1026.56 1026.58 1026.63 1026.72 1026.84 1026.98 1027.12 1027.25 1027.34 1027.38 1027.37 1027.31 1027.19 1027.02 1026.80 1026.53 1026.23 1025.88 1025.49 1025.05 1024.57 1024.05 1023.51 1022.96 1022.40 1021.87 1021.36 1020.88 1020.45 1020.04 1019.66
1025.97 1026.23 1026.42 1026.55 1026.63 1026.66 1026.67 1026.69 1026.72 1026.80 1026.90 1027.04 1027.19 1027.35 1027.48 1027.56 1027.60 1027.57 1027.48 1027.32 1027.10 1026.83 1026.53 1026.18 1025.80 1025.39 1024.95 1024.47 1023.97 1023.45 1022.92 1022.38 1021.85 1021.34 1020.84 1020.38 1019.93 1019.50
1025.87 1026.17 1026.41 1026.59 1026.71 1026.79 1026.84 1026.90 1026.97 1027.07 1027.20 1027.36 1027.52 1027.67 1027.79 1027.86 1027.87 1027.80 1027.65 1027.44 1027.16 1026.83 1026.47 1026.08 1025.67 1025.24 1024.79 1024.32 1023.84 1023.35 1022.84 1022.33 1021.81 1021.29 1020.77 1020.27 1019.77 1019.29
1025.72 1026.08 1026.38 1026.62 1026.80 1026.94 1027.05 1027.16 1027.28 1027.42 1027.58 1027.75 1027.91 1028.05 1028.15 1028.18 1028.13 1028.00 1027.79 1027.51 1027.16 1026.78 1026.36 1025.92 1025.47 1025.03 1024.58 1024.12 1023.67 1023.20 1022.72 1022.22 1021.71 1021.19 1020.65 1020.12 1019.57 1019.03
1025.54 1025.95 1026.32 1026.62 1026.88 1027.09 1027.28 1027.46 1027.63 1027.80 1027.99 1028.16 1028.31 1028.43 1028.48 1028.46 1028.35 1028.15 1027.87 1027.52 1027.10 1026.65 1026.18 1025.70 1025.23 1024.77 1024.32 1023.88 1023.45 1023.00 1022.55 1022.07 1021.57 1021.04 1020.49 1019.92 1019.34 1018.75
1025.32 1025.80 1026.22 1026.61 1026.94 1027.23 1027.49 1027.73 1027.95 1028.16 1028.36 1028.53 1028.66 1028.73 1028.74 1028.65 1028.48 1028.22 1027.87 1027.45 1026.98 1026.48 1025.97 1025.46 1024.97 1024.50 1024.06 1023.63 1023.21 1022.79 1022.35 1021.88 1021.39 1020.86 1020.29 1019.71 1019.09 1018.47
1025.12 1025.64 1026.12 1026.57 1026.98 1027.34 1027.67 1027.96 1028.22 1028.46 1028.65 1028.81 1028.91 1028.94 1028.89 1028.75 1028.52 1028.20 1027.80 1027.33 1026.82 1026.29 1025.75 1025.23 1024.73 1024.27 1023.82 1023.40 1022.99 1022.58 1022.15 1021.69 1021.20 1020.67 1020.11 1019.51 1018.88 1018.24
1024.94 1025.50 1026.03 1026.54 1027.00 1027.42 1027.79 1028.13 1028.42 1028.66 1028.85 1028.99 1029.05 1029.04 1028.94 1028.75 1028.47 1028.10 1027.67 1027.18 1026.65 1026.11 1025.58 1025.05 1024.56 1024.09 1023.66 1023.24 1022.83 1022.42 1021.99 1021.53 1021.04 1020.52 1019.95 1019.35 1018.73 1018.09
1024.81 1025.40 1025.96 1026.50 1027.01 1027.47 1027.88 1028.23 1028.53 1028.77 1028.95 1029.05 1029.08 1029.03 1028.88 1028.66 1028.35 1027.96 1027.52 1027.03 1026.52 1025.99 1025.47 1024.96 1024.48 1024.02 1023.59 1023.17 1022.75 1022.33 1021.90 1021.43 1020.94 1020.41 1019.85 1019.27 1018.65 1018.03
1024.73 1025.33 1025.92 1026.48 1027.01 1027.49 1027.91 1028.27 1028.57 1028.79 1028.95 1029.02 1029.01 1028.92 1028.75 1028.50 1028.19 1027.81 1027.38 1026.91 1026.43 1025.93 1025.44 1024.96 1024.50 1024.06 1023.62 1023.20 1022.77 1022.34 1021.88 1021.41 1020.91 1020.38 1019.83 1019.25 1018.66 1018.06
1024.68 1025.29 1025.90 1026.47 1027.00 1027.48 1027.90 1028.25 1028.53 1028.73 1028.85 1028.90 1028.86 1028.75 1028.56 1028.31 1028.00 1027.65 1027.25 1026.83 1026.39 1025.95 1025.50 1025.06 1024.62 1024.19 1023.76 1023.32 1022.88 1022.43 1021.96 1021.46 1020.95 1020.42 1019.88 1019.31 1018.74 1018.16
Thickness
5671 5671 5669 5668 5668 5667 5665 5662 5656 5649 5648 5650 5651 5653 5653 5652 5652 5651 5650 5649 5648 5646 5645 5644 5643 5641 5640 5639 5638 5637 5636 5635 5634 5634 5633 5633 5633 5633
5669 5668 5667 5666 5665 5664 5662 5660 5657 5653 5646 5647 5647 5649 5649 5649 5648 5647 5646 5645 5643 5641 5640 5639 5637 5635 5634 5632 5631 5630 5629 5628 5627 5626 5626 5625 5625 5624
5666 5665 5664 5663 5661 5660 5659 5657 5654 5651 5646 5644 5644 5645 5645 5644 5643 5642 5641 5639 5638 5636 5635 5633 5631 5630 5628 5626 5625 5623 5622 5620 5619 5618 5618 5617 5616 5616
5663 5662 5660 5660 5658 5657 5655 5653 5651 5649 5645 5641 5640 5640 5640 5639 5638 5636 5635 5634 5632 5630 5629 5627 5625 5624 5622 5620 5618 5616 5615 5613 5612 5611 5610 5609 5608 5607
5661 5659 5658 5657 5655 5653 5652 5650 5648 5647 5643 5639 5636 5635 5634 5633 5632 5631 5629 5628 5626 5624 5622 5621 5619 5617 5615 5613 5611 5609 5607 5606 5604 5603 5601 5600 5599 5598
5659 5658 5656 5655 5653 5651 5649 5647 5645 5642 5639 5635 5632 5630 5628 5627 5625 5623 5621 5620 5619 5618 5616 5614 5612 5610 5608 5606 5604 5602 5600 5598 5597 5595 5593 5592 5590 5589
5656 5655 5654 5653 5652 5650 5648 5644 5642 5638 5634 5630 5627 5625 5623 5621 5619 5617 5615 5613 5612 5611 5609 5607 5605 5603 5601 5599 5597 5595 5593 5591 5589 5587 5586 5584 5582 5580
5652 5651 5651 5650 5649 5647 5646 5643 5640 5636 5631 5627 5623 5621 5619 5617 5615 5613 5609 5606 5604 5604 5601 5599 5598 5595 5594 5592 5590 5587 5585 5583 5581 5579 5577 5575 5573 5571
5649 5647 5646 5645 5644 5642 5641 5639 5637 5634 5632 5627 5622 5619 5617 5615 5612 5608 5604 5601 5599 5598 5595 5591 5590 5587 5587 5585 5582 5580 5577 5575 5573 5571 5568 5566 5564 5562
5645 5644 5641 5640 5639 5637 5635 5632 5630 5628 5626 5624 5621 5618 5616 5613 5609 5605 5601 5596 5594 5592 5589 5584 5582 5580 5579 5577 5575 5572 5569 5567 5564 5562 5560 5557 5555 5553
5641 5639 5637 5635 5635 5633 5629 5626 5623 5621 5620 5618 5616 5613 5610 5606 5603 5598 5593 5589 5585 5584 5581 5577 5575 5572 5571 5569 5567 5564 5562 5559 5556 5554 5551 5549 5546 5544
5635 5634 5633 5631 5630 5628 5624 5620 5616 5615 5613 5611 5608 5605 5602 5599 5596 5592 5587 5582 5578 5576 5574 5570 5566 5563 5561 5561 5559 5557 5554 5551 5549 5546 5543 5541 5538 5535
5630 5628 5627 5627 5625 5623 5619 5616 5613 5610 5606 5603 5600 5597 5594 5592 5589 5585 5582 5577 5572 5569 5568 5564 5559 5555 5552 5551 5550 5549 5546 5544 5541 5538 5535 5532 5529 5526
5626 5624 5622 5621 5619 5616 5613 5611 5607 5603 5599 5595 5591 5588 5585 5583 5581 5578 5575 5572 5569 5565 5562 5558 5553 5549 5544 5542 5541 5540 5538 5535 5533 5530 5527 5524 5521 5517
5622 5619 5617 5615 5612 5609 5607 5604 5600 5595 5591 5587 5583 5580 5578 5576 5573 5570 5567 5564 5561 5557 5554 5551 5547 5542 5538 5535 5532 5530 5527 5526 5523 5520 5518 5514 5511 5508
5615 5613 5610 5607 5604 5601 5599 5596 5592 5589 5585 5581 5577 5574 5571 5568 5565 5562 5559 5556 5552 5549 5546 5543 5540 5536 5531 5527 5524 5521 5518 5515 5514 5511 5508 5505 5502 5499
5607 5603 5600 5597 5594 5592 5589 5587 5584 5581 5577 5574 5570 5567 5564 5561 5557 5555 5551 5547 5543 5540 5537 5534 5531 5527 5524 5519 5515 5512 5509 5506 5504 5501 5497 5495 5493 5490
5600 5595 5592 5589 5587 5584 5582 5579 5576 5573 5571 5567 5564 5560 5557 5554 5550 5547 5543 5539 5535 5532 5528 5525 5522 5518 5514 5510 5508 5503 5500 5497 5494 5491 5488 5484 5484 5482
5592 5589 5586 5583 5580 5578 5575 5572 5569 5567 5564 5560 5557 5554 5550 5547 5543 5539 5535 5531 5527 5524 5520 5516 5511 5507 5503 5501 5499 5495 5491 5488 5484 5481 5478 5475 5474 5474
5584 5582 5579 5576 5574 5571 5568 5565 5563 5560 5556 5553 5550 5546 5543 5540 5536 5532 5528 5524 5520 5516 5512 5507 5502 5498 5495 5492 5490 5487 5484 5479 5475 5472 5470 5468 5466 5466
5578 5575 5573 5570 5567 5565 5562 5559 5556 5553 5550 5546 5543 5540 5536 5532 5528 5524 5520 5517 5512 5507 5503 5500 5497 5493 5488 5483 5479 5478 5475 5472 5468 5465 5462 5459 5457 5455
5572 5569 5566 5563 5561 5558 5555 5552 5549 5546 5543 5540 5537 5533 5529 5525 5521 5517 5512 5508 5504 5500 5496 5492 5488 5484 5479 5475 5472 5469 5467 5465 5462 5458 5456 5453 5449 5448
5565 5562 5560 5557 5554 5551 5548 5545 5543 5540 5537 5533 5530 5526 5522 5518 5514 5509 5504 5500 5495 5491 5487 5483 5479 5475 5472 5468 5464 5461 5459 5456 5453 5450 5449 5447 5445 5443